星链-31090 (STARLINK-31090 )

导读

STARLINK-31090是美国SpaceX公司星链(Starlink)星座的卫星,于2023年12月23日发射。星链星座旨在为全球提供高速低延迟宽带互联网服务,卫星采用平板设计,搭载霍尔推进器,具备自主避撞能力,寿命结束后会主动离轨坠入大气层烧毁。作为低轨通信卫星,它将助力星链扩展全球网络覆盖,提升互联网服务能力,服务全球多地个人及商业互联网需求。

基本信息
目录编号:
58640
目录名称:
STARLINK-31090
国际标识:
2023-203Y
轨道中心:
EARTH
卫星名称:
星链-31090
卫星全名:
星链-31090 (STARLINK-31090 )
卫星状态:
在轨 (已飞行986 天)
发射日期:
2023-12-23 UTC
国别 :
美国 (US)
星等 :
--
轨道信息
数据来源 国际轨道数据
星历时间: 2026-09-04T00:37:50+0800
1天前
查看轨道信息
半长轴: 6861.19km
偏心率: 0.000114
轨道倾角: 43.001°
近地点辐角 236.929°
升交点赤经 134.130°
平近点角 123.145°
近地点: 482.27km
远地点: 483.836km
周期: 94.267分钟
每日圈数: 15.275787
详细信息
固有亮度:
5
最大亮度:
0.3
卫星平台:
Starlink v2.0 mini
覆盖范围:
全球
运营商:
太空探索技术公司
运营商所在国:
美国
制造商(研发单位):
太空探索技术公司
制造商所在国:
美国
使用方式:
暂无
卫星简介
星链(Starlink)计划是由太空探索技术公司(SpaceX)提出的一个巨型低轨卫星互联网星座项目,计划在2019年至2024年间在太空搭建由约1.2万颗卫星组成的“星链”网络,其中1584颗将部署在地球上空550千米处的近地轨道,并从2020年开始工作。该卫星仍在工作。
2D轨道图
3D轨道图
轨道高度分析图
轨道倾角分析图
轨道综合分析图
查看轨道综合分析图
交会数据列表
事件ID 空间交会对象 最接近时刻(TCA) 交会距离 交会风险概率(CRP) 交会风险指数(CRI) 操作
CDM_260906-152105-864006-652521
2026-09-06T
15:21:31+0000
1.204 km
极远距离
1.065096E-5 中风险 0.56
CDM_260907-064305-864006-274421
2026-09-07T
06:43:24+0000
1.426 km
极远距离
5.160995E-6 低风险 0.49
CDM_260907-013305-864006-652521
2026-09-07T
01:33:30+0000
1.505 km
极远距离
5.026864E-6 低风险 0.49
CDM_260907-030705-864006-652521
2026-09-07T
03:07:39+0000
1.872 km
极远距离
2.624681E-6 低风险 0.43
CDM_260903-043605-390905-864021
2026-09-03T
04:36:38+0000
2.795 km
极远距离
1.083097E-6 低风险 0.36
CDM_260906-134705-864006-652521
2026-09-06T
13:47:22+0000
2.995 km
极远距离
1.063612E-6 低风险 0.36
CDM_260907-050905-864006-274421
2026-09-07T
05:09:15+0000
2.855 km
极远距离
9.948734E-7 极低风险 0.35
CDM_260904-223405-864006-388821
2026-09-04T
22:34:29+0000
2.261 km
极远距离
9.767262E-7 极低风险 0.35